Date String (YYYY-MM-DD hh:mm:ss) UTC,Instrument flags,absolute air pressure of the measurement (hPa),sample flow rate (lpm),inlet stack bypass flow (lpm),air temperature of the measurement (°C),ambient temperature measured by the external sensor (°C),aerosol sample conditioner tube jacket temperature (°C),OPC LED temperature (°C),internal box temperature (°C),relative humidity of the measurement (%),span deviation,mass concentration of particles derived from Lorenz-Mie calculation of OPC scattering (μg/m³),mass concentration of particles derived from Lorenz-Mie calculation of OPC scattering (μg/m³),mass concentration of particles derived from Lorenz-Mie calculation of OPC scattering (μg/m³)
DateTimeUTC,F1_M11,P_M11,Q1_M11,Q2_M11,T1_M11,T2_M11,T3_M11,T4_M11,T5_M11,U1_M11,ZSPAN_M11,X2_M11,X0_M11,X1_M11
2024-03-13 03:00:00,SystemResetWarning,0822.4,5.00,000.00,023.2,022.5,000.0,031.8,025.1,15.9,0000.0,0002.97,0009.15,0001.48
2024-03-13 03:01:00,SystemResetWarning,0822.4,5.01,000.00,023.2,022.5,000.0,031.8,025.1,15.9,0000.0,0002.96,0008.35,0001.49
2024-03-13 03:02:00,SystemResetWarning,0822.4,4.99,000.00,023.2,022.5,000.0,031.8,025.1,15.9,0000.0,0003.05,0008.79,0001.51
2024-03-13 03:03:00,SystemResetWarning,0822.4,4.99,000.00,023.2,022.5,000.0,031.8,025.1,15.8,0000.0,0003.03,0008.75,0001.51
2024-03-13 03:04:00,SystemResetWarning,0822.4,4.99,000.00,023.2,022.5,000.0,031.8,025.1,15.9,0000.0,0003.00,0007.93,0001.52
2024-03-13 03:05:00,SystemResetWarning,0822.4,5.00,000.00,023.2,022.5,000.0,031.8,025.1,15.9,0000.0,0002.96,0007.92,0001.52
2024-03-13 03:06:00,SystemResetWarning,0822.5,5.00,000.00,023.2,022.4,000.0,031.8,025.0,15.9,0000.0,0002.84,0007.75,0001.52
2024-03-13 03:07:00,SystemResetWarning,0822.4,5.00,000.00,023.2,022.4,000.0,031.8,025.0,15.9,0000.0,0002.79,0007.55,0001.53
2024-03-13 03:08:00,SystemResetWarning,0822.4,5.00,000.00,023.2,022.4,000.0,031.8,025.0,16.0,0000.0,0002.76,0007.36,0001.53
2024-03-13 03:09:00,SystemResetWarning,0822.4,5.00,000.00,023.2,022.4,000.0,031.8,025.0,16.0,0000.0,0002.73,0007.78,0001.51
2024-03-13 03:10:00,SystemResetWarning,0822.4,5.00,000.00,023.2,022.4,000.0,031.8,025.0,15.9,0000.0,0002.76,0008.60,0001.50
2024-03-13 03:11:00,SystemResetWarning,0822.4,5.00,000.00,023.2,022.3,000.0,031.8,025.0,15.9,0000.0,0002.79,0008.73,0001.50
2024-03-13 03:12:00,SystemResetWarning,0822.4,5.00,000.00,023.2,022.3,000.0,031.8,025.0,15.9,0000.0,0002.83,0008.91,0001.50
2024-03-13 03:13:00,SystemResetWarning,0822.4,5.00,000.00,023.2,022.4,000.0,031.8,025.0,15.9,0000.0,0002.79,0008.53,0001.49
2024-03-13 03:14:00,SystemResetWarning,0822.4,4.99,000.00,023.2,022.4,000.0,031.8,025.0,16.0,0000.0,0002.84,0008.27,0001.48
2024-03-13 03:15:00,SystemResetWarning,0822.4,4.99,000.00,023.2,022.4,000.0,031.8,025.0,15.9,0000.0,0002.91,0008.37,0001.49
2024-03-13 03:16:00,SystemResetWarning,0822.5,5.00,000.00,023.2,022.4,000.0,031.8,025.0,15.9,0000.0,0002.96,0008.59,0001.50
2024-03-13 03:17:00,SystemResetWarning,0822.4,5.00,000.00,023.2,022.4,000.0,031.8,025.0,15.9,0000.0,0003.05,0008.59,0001.51
2024-03-13 03:18:00,SystemResetWarning,0822.4,5.00,000.00,023.2,022.4,000.0,031.8,025.0,16.0,0000.0,0003.12,0008.93,0001.51
2024-03-13 03:19:00,SystemResetWarning,0822.4,5.01,000.00,023.2,022.4,000.0,031.8,025.0,16.0,0000.0,0003.14,0009.05,0001.51
2024-03-13 03:20:00,SystemResetWarning,0822.4,5.01,000.00,023.2,022.4,000.0,031.8,025.0,16.0,0000.0,0003.13,0009.05,0001.53
2024-03-13 03:21:00,SystemResetWarning,0822.3,5.01,000.00,023.2,022.4,000.0,031.8,025.0,16.0,0000.0,0003.16,0009.28,0001.54
2024-03-13 03:22:00,SystemResetWarning,0822.3,5.00,000.00,023.2,022.4,000.0,031.8,025.0,15.9,0000.0,0003.19,0009.56,0001.55
2024-03-13 03:23:00,SystemResetWarning,0822.2,4.99,000.00,023.2,022.4,000.0,031.8,025.0,16.0,0000.0,0003.19,0009.23,0001.54
2024-03-13 03:24:00,SystemResetWarning,0822.2,5.01,000.00,023.2,022.4,000.0,031.8,025.0,16.0,0000.0,0003.13,0008.99,0001.53
2024-03-13 03:25:00,SystemResetWarning,0822.2,5.00,000.00,023.2,022.4,000.0,031.7,025.0,16.1,0000.0,0003.07,0008.91,0001.52
2024-03-13 03:26:00,SystemResetWarning,0822.2,5.00,000.00,023.2,022.4,000.0,031.7,025.0,16.0,0000.0,0003.02,0008.87,0001.52
2024-03-13 03:27:00,SystemResetWarning,0822.2,5.00,000.00,023.2,022.4,000.0,031.7,025.0,16.0,0000.0,0003.03,0008.64,0001.49
2024-03-13 03:28:00,SystemResetWarning,0822.2,5.00,000.00,023.2,022.4,000.0,031.7,025.0,16.1,0000.0,0002.97,0008.53,0001.49
2024-03-13 03:29:00,SystemResetWarning,0822.1,5.00,000.00,023.2,022.4,000.0,031.7,025.0,16.2,0000.0,0002.89,0008.93,0001.47
2024-03-13 03:30:00,SystemResetWarning,0822.1,5.00,000.00,023.2,022.4,000.0,031.7,025.0,16.1,0000.0,0002.93,0009.03,0001.48
2024-03-13 03:31:00,SystemResetWarning,0822.1,5.01,000.00,023.1,022.4,000.0,031.7,025.0,16.1,0000.0,0002.98,0008.80,0001.48
2024-03-13 03:32:00,SystemResetWarning,0822.2,5.01,000.00,023.1,022.3,000.0,031.7,025.0,16.1,0000.0,0002.92,0007.66,0001.46
2024-03-13 03:33:00,SystemResetWarning,0822.2,5.00,000.00,023.1,022.3,000.0,031.7,025.0,16.0,0000.0,0002.84,0007.27,0001.46
2024-03-13 03:34:00,SystemResetWarning,0822.1,5.00,000.00,023.1,022.3,000.0,031.7,024.9,16.0,0000.0,0002.85,0007.29,0001.47
2024-03-13 03:35:00,SystemResetWarning,0822.1,4.99,000.00,023.1,022.3,000.0,031.7,024.9,16.0,0000.0,0002.90,0007.46,0001.47
2024-03-13 03:36:00,SystemResetWarning,0822.2,4.99,000.00,023.1,022.3,000.0,031.7,024.9,15.9,0000.0,0002.94,0007.48,0001.48
2024-03-13 03:37:00,SystemResetWarning,0822.1,5.00,000.00,023.1,022.3,000.0,031.7,024.9,15.9,0000.0,0002.98,0007.59,0001.47
2024-03-13 03:38:00,SystemResetWarning,0822.1,5.00,000.00,023.1,022.3,000.0,031.7,024.9,15.8,0000.0,0002.92,0007.50,0001.47
2024-03-13 03:39:00,SystemResetWarning,0822.1,5.01,000.00,023.1,022.3,000.0,031.7,024.9,15.8,0000.0,0002.93,0007.64,0001.45
2024-03-13 03:40:00,SystemResetWarning,0822.1,5.00,000.00,023.1,022.3,000.0,031.7,024.9,15.8,0000.0,0002.93,0006.76,0001.45
2024-03-13 03:41:00,SystemResetWarning,0822.1,5.00,000.00,023.1,022.3,000.0,031.7,024.9,15.8,0000.0,0002.90,0006.46,0001.44
2024-03-13 03:42:00,SystemResetWarning,0822.1,5.00,000.00,023.1,022.3,000.0,031.7,024.9,15.8,0000.0,0002.85,0006.35,0001.43
2024-03-13 03:43:00,SystemResetWarning,0822.1,5.00,000.00,023.1,022.2,000.0,031.6,024.9,15.8,0000.0,0002.85,0006.44,0001.42
2024-03-13 03:44:00,SystemResetWarning,0822.1,5.00,000.00,023.1,022.2,000.0,031.6,024.9,15.9,0000.0,0002.89,0006.69,0001.42
2024-03-13 03:45:00,SystemResetWarning,0822.1,4.99,000.00,023.0,022.2,000.0,031.6,024.9,15.9,0000.0,0002.87,0007.07,0001.41
2024-03-13 03:46:00,SystemResetWarning,0822.1,5.00,000.00,023.0,022.2,000.0,031.6,024.9,16.0,0000.0,0002.84,0006.88,0001.39
2024-03-13 03:47:00,SystemResetWarning,0822.0,5.00,000.00,023.0,022.2,000.0,031.6,024.9,16.0,0000.0,0002.82,0007.01,0001.39
2024-03-13 03:48:00,SystemResetWarning,0822.1,5.00,000.00,023.0,022.2,000.0,031.6,024.9,16.0,0000.0,0002.74,0006.82,0001.37
2024-03-13 03:49:00,SystemResetWarning,0822.1,5.00,000.00,023.0,022.2,000.0,031.6,024.9,16.0,0000.0,0002.68,0007.24,0001.36
2024-03-13 03:50:00,SystemResetWarning,0822.1,5.00,000.00,023.0,022.2,000.0,031.6,024.8,16.1,0000.0,0002.66,0007.10,0001.35
2024-03-13 03:51:00,SystemResetWarning,0822.1,5.00,000.00,023.0,022.2,000.0,031.6,024.8,16.1,0000.0,0002.70,0007.10,0001.35
2024-03-13 03:52:00,SystemResetWarning,0822.1,5.00,000.00,023.0,022.2,000.0,031.6,024.8,16.2,0000.0,0002.68,0007.72,0001.35
2024-03-13 03:53:00,SystemResetWarning,0822.1,5.01,000.00,023.0,022.2,000.0,031.6,024.8,16.2,0000.0,0002.63,0007.92,0001.34
2024-03-13 03:54:00,SystemResetWarning,0822.1,5.01,000.00,023.0,022.2,000.0,031.6,024.8,16.1,0000.0,0002.59,0007.81,0001.34
2024-03-13 03:55:00,SystemResetWarning,0822.1,5.00,000.00,023.0,022.2,000.0,031.6,024.8,16.1,0000.0,0002.53,0007.68,0001.32
2024-03-13 03:56:00,SystemResetWarning,0822.1,5.00,000.00,023.0,022.2,000.0,031.5,024.8,16.1,0000.0,0002.52,0007.53,0001.32
2024-03-13 03:57:00,SystemResetWarning,0822.1,5.01,000.00,023.0,022.2,000.0,031.5,024.8,16.2,0000.0,0002.51,0007.48,0001.32
2024-03-13 03:58:00,SystemResetWarning,0822.1,5.01,000.00,023.0,022.2,000.0,031.5,024.8,16.2,0000.0,0002.52,0007.45,0001.32
2024-03-13 03:59:00,SystemResetWarning,0822.1,5.00,000.00,023.0,022.2,000.0,031.5,024.8,16.1,0000.0,0002.60,0007.54,0001.35
